Change the Weather History Date:

Saturday, February 16, 2013

  Actual Average (KUIN) Record (KUIN)
Temperature  
Mean Temperature 26 °F 31 °F  
Max Temperature 34 °F 39 °F 71 °F (1921)
Min Temperature 18 °F 23 °F -11 °F (1958)
Degree Days  
Heating Degree Days 39 34  
Month to date heating degree days 575  
Since 1 July heating degree days 3961  
Cooling Degree Days 0 0  
Month to date cooling degree days 0  
Year to date cooling degree days 0  
Moisture  
Dew Point 14 °F    
Average Humidity 64    
Maximum Humidity 84    
Minimum Humidity 41    
Precipitation  
Precipitation 0.00 in 0.07 in 0.84 in (1976)
Month to date precipitation 0.98  
Year to date precipitation 2.50  
Sea Level Pressure  
Sea Level Pressure 30.21 in    
Wind  
Wind Speed 7 mph (WNW)    
Max Wind Speed 13 mph    
Max Gust Speed 20 mph    
Visibility 10 miles    
Events      
T = Trace of Precipitation, MM = Missing Value Source: NWS Daily Summary

Daily Weather History Graph

Daily Weather History Graph

Search for Another Location

Airport or City:

Trip Planner

Search our weather history database for the weather conditions in past years. The results will help you decide how hot, cold, wet, or windy it might be!

Date:

Astronomy

Feb. 16, 2013 Rise Set
Actual Time 6:53 AM CST 5:41 PM CST
Civil Twilight 6:26 AM CST 6:08 PM CST
Nautical Twilight 5:54 AM CST 6:40 PM CST
Astronomical Twilight 5:23 AM CST 7:11 PM CST
Moon 10:08 AM CST (2/16) No Moon Set
Length of Visible Light 11h 42m
Length of Day
10h 47m
Waxing Crescent, 39% of the Moon is Illuminated
Feb 16
Waxing Crescent
Feb 17
First Quarter
Feb 25
Full
Mar 4
Last Quarter
Mar 11
New

Hourly Weather History & Observations

Time (CST) Temp. Windchill Dew Point Humidity Pressure Visibility Wind Dir Wind Speed Gust Speed Precip Events Conditions
12:15 AM 24.8 °F 16.1 °F 15.6 °F 68% 30.25 in 10.0 mi NW 8.1 mph - N/A   Clear
12:35 AM 24.3 °F 15.4 °F 15.4 °F 69% 30.25 in 10.0 mi NNW 8.1 mph - N/A   Clear
12:55 AM 23.9 °F 16.8 °F 15.6 °F 71% 30.25 in 10.0 mi NNW 5.8 mph - N/A   Clear
1:15 AM 23.4 °F 16.2 °F 15.4 °F 72% 30.25 in 10.0 mi NW 5.8 mph - N/A   Clear
1:35 AM 23.5 °F 15.4 °F 15.4 °F 71% 30.25 in 10.0 mi NW 6.9 mph - N/A   Clear
1:55 AM 23.2 °F 12.6 °F 14.9 °F 71% 30.24 in 10.0 mi NW 10.4 mph - N/A   Clear
2:15 AM 23.2 °F 14.1 °F 15.1 °F 71% 30.25 in 10.0 mi NW 8.1 mph - N/A   Scattered Clouds
2:35 AM 22.5 °F 14.1 °F 15.1 °F 73% 30.25 in 10.0 mi NW 6.9 mph - N/A   Clear
2:55 AM 22.1 °F 12.8 °F 15.8 °F 77% 30.24 in 10.0 mi NW 8.1 mph - N/A   Clear
3:15 AM 22.1 °F 11.3 °F 15.8 °F 77% 30.24 in 10.0 mi NNW 10.4 mph - N/A   Clear
3:35 AM 21.2 °F 12.6 °F 15.6 °F 79% 30.24 in 10.0 mi NNW 6.9 mph - N/A   Scattered Clouds
3:55 AM 21.2 °F 13.6 °F 15.8 °F 80% 30.24 in 10.0 mi NW 5.8 mph - N/A   Scattered Clouds
4:15 AM 21.2 °F 10.9 °F 14.4 °F 75% 30.24 in 10.0 mi NW 9.2 mph - N/A   Scattered Clouds
4:35 AM 20.7 °F 11.0 °F 14.0 °F 75% 30.25 in 10.0 mi NW 8.1 mph - N/A   Clear
4:55 AM 19.4 °F 9.5 °F 12.2 °F 74% 30.25 in 10.0 mi NNW 8.1 mph - N/A   Clear
5:15 AM 19.8 °F 8.3 °F 12.2 °F 72% 30.25 in 10.0 mi NNW 10.4 mph - N/A   Clear
5:35 AM 19.4 °F 9.5 °F 11.5 °F 71% 30.25 in 10.0 mi NNW 8.1 mph - N/A   Clear
5:55 AM 18.9 °F 10.8 °F 11.3 °F 72% 30.25 in 10.0 mi NW 5.8 mph - N/A   Clear
6:15 AM 18.5 °F 7.5 °F 11.1 °F 73% 30.25 in 10.0 mi NW 9.2 mph - N/A   Clear
6:35 AM 18.5 °F 11.7 °F 11.1 °F 73% 30.25 in 10.0 mi WNW 4.6 mph - N/A   Clear
6:55 AM 18.5 °F 9.3 °F 11.1 °F 73% 30.26 in 10.0 mi NW 6.9 mph - N/A   Clear
7:15 AM 18.1 °F 11.3 °F 11.1 °F 74% 30.26 in 10.0 mi NW 4.6 mph - N/A   Clear
7:35 AM 19.0 °F 10.0 °F 11.3 °F 72% 30.26 in 10.0 mi NW 6.9 mph - N/A   Clear
7:55 AM 19.4 °F 9.5 °F 11.1 °F 70% 30.27 in 10.0 mi WNW 8.1 mph - N/A   Scattered Clouds
8:15 AM 20.1 °F 9.5 °F 11.7 °F 70% 30.27 in 10.0 mi NW 9.2 mph - N/A   Scattered Clouds
8:35 AM 20.7 °F 11.0 °F 11.5 °F 68% 30.27 in 10.0 mi NW 8.1 mph - N/A   Clear
8:55 AM 21.4 °F 11.9 °F 10.9 °F 64% 30.27 in 10.0 mi NW 8.1 mph - N/A   Clear
9:15 AM 22.1 °F 12.8 °F 10.6 °F 61% 30.27 in 10.0 mi WNW 8.1 mph - N/A   Clear
9:35 AM 23.0 °F 14.7 °F 10.0 °F 58% 30.27 in 10.0 mi WNW 6.9 mph - N/A   Clear
12:15 PM 29.3 °F 20.2 °F 10.9 °F 46% 30.23 in 10.0 mi WNW 10.4 mph 19.6 mph N/A   Clear
12:35 PM 30.0 °F 21.7 °F 10.4 °F 44% 30.22 in 10.0 mi WNW 9.2 mph - N/A   Clear
12:55 PM 30.7 °F 22.6 °F 11.1 °F 44% 30.20 in 10.0 mi WNW 9.2 mph 16.1 mph N/A   Clear
1:15 PM 31.1 °F 23.7 °F 11.3 °F 44% 30.20 in 10.0 mi West 8.1 mph - N/A   Clear
1:35 PM 31.8 °F 24.6 °F 11.1 °F 42% 30.19 in 10.0 mi West 8.1 mph 18.4 mph N/A   Clear
1:55 PM 32.0 °F 22.5 °F 10.8 °F 41% 30.18 in 10.0 mi West 12.7 mph 19.6 mph N/A   Clear
2:15 PM 32.2 °F 22.7 °F 10.9 °F 41% 30.18 in 10.0 mi WNW 12.7 mph - N/A   Clear
2:35 PM 32.5 °F 24.2 °F 11.7 °F 42% 30.17 in 10.0 mi West 10.4 mph - N/A   Clear
2:55 PM 32.7 °F 23.9 °F 12.0 °F 42% 30.17 in 10.0 mi West 11.5 mph 18.4 mph N/A   Clear
3:15 PM 33.1 °F 24.9 °F 11.8 °F 41% 30.17 in 10.0 mi West 10.4 mph 17.3 mph N/A   Clear
3:35 PM 33.6 °F 26.2 °F 12.6 °F 42% 30.17 in 10.0 mi West 9.2 mph - N/A   Scattered Clouds
3:55 PM 34.0 °F 25.5 °F 12.7 °F 42% 30.17 in 10.0 mi West 11.5 mph 18.4 mph N/A   Scattered Clouds
4:15 PM 33.6 °F 26.8 °F 12.7 °F 42% 30.17 in 10.0 mi West 8.1 mph - N/A   Scattered Clouds
4:35 PM 33.1 °F 24.9 °F 12.4 °F 42% 30.17 in 10.0 mi WNW 10.4 mph - N/A   Scattered Clouds
4:55 PM 33.1 °F 26.1 °F 13.5 °F 44% 30.16 in 10.0 mi West 8.1 mph - N/A   Scattered Clouds
5:15 PM 32.5 °F 28.1 °F 13.6 °F 46% 30.17 in 10.0 mi West 4.6 mph - N/A   Clear
5:35 PM 32.0 °F 27.5 °F 14.5 °F 49% 30.17 in 10.0 mi WNW 4.6 mph - N/A   Clear
5:55 PM 31.5 °F 28.1 °F 14.9 °F 50% 30.18 in 10.0 mi WNW 3.5 mph - N/A   Clear
6:15 PM 31.1 °F - 14.9 °F 51% 30.17 in 10.0 mi Calm Calm - N/A   Clear
6:35 PM 29.1 °F - 16.5 °F 59% 30.18 in 10.0 mi Calm Calm - N/A   Clear
6:55 PM 29.3 °F - 16.5 °F 59% 30.18 in 10.0 mi Calm Calm - N/A   Clear
7:15 PM 29.3 °F - 15.4 °F 56% 30.18 in 10.0 mi Calm Calm - N/A   Clear
7:35 PM 29.1 °F - 16.2 °F 58% 30.18 in 10.0 mi Calm Calm - N/A   Clear
7:55 PM 26.8 °F - 19.8 °F 75% 30.18 in 10.0 mi Calm Calm - N/A   Clear
8:15 PM 26.8 °F - 18.9 °F 72% 30.18 in 10.0 mi Calm Calm - N/A   Clear
8:35 PM 26.1 °F - 20.8 °F 81% 30.18 in 10.0 mi Calm Calm - N/A   Clear
8:55 PM 26.4 °F - 19.4 °F 75% 30.18 in 10.0 mi Calm Calm - N/A   Clear
9:15 PM 25.2 °F - 20.7 °F 83% 30.19 in 10.0 mi Calm Calm - N/A   Clear
9:35 PM 24.6 °F - 16.0 °F 70% 30.19 in 10.0 mi Calm Calm - N/A   Clear
9:55 PM 25.0 °F - 19.9 °F 81% 30.18 in 10.0 mi Calm Calm - N/A   Clear
10:15 PM 24.8 °F - 17.6 °F 74% 30.18 in 10.0 mi Calm Calm - N/A   Clear
10:35 PM 23.7 °F - 18.0 °F 79% 30.18 in 10.0 mi Calm Calm - N/A   Clear
10:55 PM 22.5 °F - 18.3 °F 84% 30.17 in 10.0 mi Calm Calm - N/A   Clear
11:15 PM 22.8 °F - 16.9 °F 78% 30.16 in 10.0 mi Calm Calm - N/A   Clear
11:35 PM 23.0 °F - 16.7 °F 77% 30.16 in 10.0 mi Calm Calm - N/A   Clear
11:55 PM 22.8 °F - 17.8 °F 81% 30.16 in 10.0 mi Calm Calm - N/A   Clear